Regional Weather Roundup
Issued by NWS

Home | Current Version | Previous Version | Text Only | Print | Product List | Glossary Off
Versions: 1 2 3 4 5 6 7 8 9 10 11 12 13 14 15 16 17 18 19 20 21 22 23 24 25 26 27 28 29 30 31 32 33 34 35 36 37 38 39 40 41 42 43 44 45 46 47 48 49 50

000
ASUS43 KMKX 212011
RWRWI

WISCONSIN REGIONAL WEATHER ROUNDUP
NATIONAL WEATHER SERVICE MILWAUKEE/SULLIVAN WI
200 PM CST SUN DEC 21 2014

NOTE: "FAIR" INDICATES FEW OR NO CLOUDS BELOW 12,000 FEET WITH NO
SIGNIFICANT WEATHER AND/OR OBSTRUCTIONS TO VISIBILITY.

WIZ001-002-006>008-014>016-023>028-212100-
NORTHWEST WISCONSIN

CITY           SKY/WX    TMP DP  RH WIND       PRES   REMARKS
SUPERIOR ARPT  MIX PCPN  32  32 100 E3        29.80F
ASHLAND        LGT SNOW  33  31  92 S6        29.84F FOG     WCI  28
HAYWARD        SNOW      33  30  88 S9        29.80F VSB 1/2 WCI  25
SIREN          LGT RAIN  33  32  95 SE8       29.78F WCI  26
CUMBERLAND     LGT SNOW  32  32 100 SE8       29.79F VSB 3/4 WCI  25
RICE LAKE      LGT SNOW  33  32  96 SE8       29.83F WCI  26
CHETEK         LGT SNOW  33  32  98 SE9       29.82F WCI  25
LADYSMITH      LGT SNOW  34  32  94 SE9       29.85F WCI  26
EAU CLAIRE     CLOUDY    34  33  96 S10       29.83F FOG     WCI  26
MENOMONIE      LGT RAIN  35  34  97 SE10      29.83F VSB 1   WCI  27
NEW RICHMOND   LGT RAIN  33  33 100 SE8       29.78F WCI  26
OSCEOLA        LGT SNOW  34  34 100 SE8       29.80F WCI  27
$$

WIZ003>005-009-010-017-018-212100-
NORTH CENTRAL WISCONSIN

CITY           SKY/WX    TMP DP  RH WIND       PRES   REMARKS
MANITOWISH WTR LGT SNOW  31  31 100 S10G16    29.85F WCI  22
ARBOR VITAE    LGT SNOW  32  30  93 S12       29.87F WCI  23
WOODRUFF       LGT SNOW  32  30  93 S12       29.87F WCI  23
RHINELANDER    LGT SNOW  30  29  96 S7        29.89F FOG     WCI  23
EAGLE RIVER    LGT SNOW  31  30  97 S7G16     29.88F WCI  24
LAND O LAKES   LGT SNOW  32  30  94 S7        29.89S WCI  25
PHILLIPS       LGT SNOW  32  30  94 S10G16    29.84F WCI  23
TOMAHAWK       LGT SNOW  31  30  95 CALM      29.89F VSB 3/4
MEDFORD        MIX PCPN  32  31  99 SE14      29.86F VSB 3/4 WCI  22
MERRILL        LGT SNOW  32  32 100 S6        29.90F WCI  26
$$

WIZ029-030-035-036-043>047-212100-
CENTRAL WISCONSIN

CITY           SKY/WX    TMP DP  RH WIND       PRES   REMARKS
WAUSAU         LGT SNOW  33  31  92 S13       29.90F FOG     WCI  24
MOSINEE        LGT SNOW  32  32 100 S16G22    29.92F WCI  21
MARSHFIELD     LGT SNOW  33  32  96 S15       29.90F VSB 1   WCI  23
STEVENS POINT  CLOUDY    33  31  92 S7        29.94F FOG     WCI  27
WAUPACA        CLOUDY    37  32  84 SE9       29.99F HAZE    WCI  30
WAUTOMA        CLOUDY    36  33  88 S10       29.98F FOG     WCI  28
WISC RAPIDS    CLOUDY    35  31  85 S9        29.94F FOG     WCI  28
CAMP DOUGLAS   CLOUDY    36  36 100 SE13      29.91F FOG     WCI  27
$$

WIZ011>013-019>022-031-037>040-048>050-212100-
NORTHEAST WISCONSIN

CITY           SKY/WX    TMP DP  RH WIND       PRES   REMARKS
ANTIGO         FOG       30  30 100 S10       29.93F VSB 1/2 WCI  21
SHAWANO        CLOUDY    36  32  86 S8        29.99F FOG     WCI  29
OCONTO         CLOUDY    35  32  91 S7        30.02F WCI  29
STURGEON BAY   CLOUDY    36  30  80 S13G21    30.04F WCI  27
GREEN BAY      CLOUDY    35  32  88 S8        30.02F FOG     WCI  29
MANITOWOC      CLOUDY    37  34  89 S15G23    30.04F WCI  28
APPLETON       CLOUDY    37  34  87 S13       30.01F FOG     WCI  29
CLINTONVILLE   CLOUDY    34  32  93 S9        29.99F FOG     WCI  26
OSHKOSH        CLOUDY    35  31  85 S12       30.01F FOG     WCI  27
$$

WIZ032>034-041-042-053>061-212100-
SOUTHWEST WISCONSIN

CITY           SKY/WX    TMP DP  RH WIND       PRES   REMARKS
LA CROSSE      CLOUDY    39  35  86 S17       29.88F FOG     WCI  30
SPARTA         CLOUDY    37  35  92 S8        29.91F FOG     WCI  30
VIROQUA        CLOUDY    36  36 100 S14G21    29.89F WCI  27
BOSCOBEL       CLOUDY    39  33  79 S10       29.94F WCI  32
PRAIRIE DU CHI CLOUDY    39  33  78 SE9G17    29.91F WCI  33
PLATTEVILLE    CLOUDY    37  34  89 S14       29.96F WCI  28
$$

WIZ056-057-062-063-064-067-068-212100-
SOUTH CENTRAL WISCONSIN

CITY           SKY/WX    TMP DP  RH WIND       PRES   REMARKS
REEDSBURG      CLOUDY    36  32  87 S9G17     29.94F WCI  29
BARABOO/DELLS  CLOUDY    35  32  89 S10       29.95F FOG     WCI  27
LONE ROCK      CLOUDY    41  32  70 S8        29.96F
MINERAL POINT  CLOUDY    37  34  87 S12       29.94F WCI  30
MADISON        CLOUDY    36  32  85 S14       29.99F WCI  27
MIDDLETON      CLOUDY    37  34  90 S10G18    29.99F WCI  29
WATERTOWN      CLOUDY    34  32  92 S7        30.02F WCI  28
MONROE         CLOUDY    36  34  93 S15G23    29.98F WCI  26
JANESVILLE     CLOUDY    37  34  87 S10       30.02F WCI  30
$$

WIZ051-052-058>065-066-070>072-212100-
SOUTHEAST WISCONSIN

CITY           SKY/WX    TMP DP  RH WIND       PRES   REMARKS
MILWAUKEE      CLOUDY    36  29  75 S10       30.07F WCI  28
WAUKESHA       CLOUDY    34  30  86 S12       30.06F FOG     WCI  25
MILWAUKEE/TIMM CLOUDY    36  28  75 S9        30.06F WCI  29
RACINE         CLOUDY    36  30  79 S10       30.08F WCI  28
BURLINGTON     CLOUDY    34  29  83 S8        30.05F WCI  27
KENOSHA        CLOUDY    36  30  79 S14       30.07F WCI  27
FOND DU LAC    CLOUDY    36  31  82 S13       30.01F WCI  27
SHEBOYGAN      CLOUDY    36  31  82 S10       30.04F WCI  28
WEST BEND      CLOUDY    34  30  86 S8        30.04F WCI  27
JUNEAU         CLOUDY    34  31  91 SE13G18   30.02F FOG     WCI  25
$$

LSZ147-162-212100-
LAKE SUPERIOR

STATION/POSITION TIME  TEMP    WIND        PRES    WAVE
                       AIR SEA DIR/SP/G            HT/PER
                 (UTC) (F)     (DEG/KT/KT) (MB)    (FT/S)
DEVILS ISLAND    2000   33     130/  6/ 10 1011.2F
PORT WING        1900   34      90/  2/  3 1010.5F
SAXON HARBOR     1900   36     190/  2/  6 1011.2F
$$

LMZ867-665-643>646-212100-
LAKE MICHIGAN

STATION/POSITION TIME  TEMP    WIND        PRES    WAVE
                       AIR SEA DIR/SP/G            HT/PER
                 (UTC) (F)     (DEG/KT/KT) (MB)    (FT/S)
CHAMBERS ISLAND  1900   36     150/  8/ 13 1017.3F
NORTHPORT PIER   1900   37     160/  9/ 16 1017.6F
SISTER BAY       1913          180/ 18/ 24   N/A
ALGOMA LAKESHORE 1914          230/ 16/ 18   N/A
KEWAUNEE LAKESHO 1900   36     190/ 14/ 17 1017.2F
SHEBOYGAN LAKESH 2000   37 34  180/ 22/ 24 1018.1F
PORT WASHINGTON  1900   37     180/ 10/ 15 1019.0F
MILWAUKEE LAKESH 1900   36     190/ 11/ 14   N/A
KENOSHA   LAKESH 2000   36     170/ 16/ 18 1018.3F
$$

TC  - TEMPERATURE IN CELSIUS
VSB - VISIBILITY IN STATUTE MILES
WCI - WIND CHILL INDEX
HX  - HEAT INDEX



USA.gov is the U.S. government's official web portal to all federal, state and local government web resources and services.